Time,TemperatureF,DewpointF,PressureIn,WindDirection,WindDirectionDegrees,WindSpeedMPH,WindSpeedGustMPH,Humidity,HourlyPrecipIn,Conditions,Clouds,dailyrainin,SolarRadiationWatts/m^2,SoftwareType,DateUTC
2013-05-05 00:01:00,60.0,24.0,-100.00,SSE,153,3.0,12.0,25,0.00,,,0.00,0.000000,,2013-05-05 07:01:00,
2013-05-05 00:11:00,60.0,24.0,-100.00,SSE,153,3.0,12.0,25,0.00,,,0.00,0.000000,,2013-05-05 07:11:00,
2013-05-05 00:21:00,60.0,24.0,-100.00,SSE,153,3.0,12.0,25,0.00,,,0.00,0.000000,,2013-05-05 07:21:00,
2013-05-05 00:52:00,59.0,26.0,-100.00,SSE,161,2.0,7.0,28,0.00,,,0.00,0.000000,,2013-05-05 07:52:00,
2013-05-05 01:02:00,59.0,26.0,-100.00,SSE,161,2.0,7.0,28,0.00,,,0.00,0.000000,,2013-05-05 08:02:00,
2013-05-05 01:11:00,59.0,26.0,-100.00,SSE,161,2.0,7.0,28,0.00,,,0.00,0.000000,,2013-05-05 08:11:00,
2013-05-05 01:21:00,59.0,26.0,-100.00,SSE,161,2.0,7.0,28,0.00,,,0.00,0.000000,,2013-05-05 08:21:00,
2013-05-05 01:53:00,60.0,27.0,-100.00,SSE,159,3.0,8.0,28,0.00,,,0.00,0.000000,,2013-05-05 08:53:00,
2013-05-05 02:01:00,60.0,27.0,-100.00,SSE,159,3.0,8.0,28,0.00,,,0.00,0.000000,,2013-05-05 09:01:00,
2013-05-05 02:11:00,60.0,27.0,-100.00,SSE,159,3.0,8.0,28,0.00,,,0.00,0.000000,,2013-05-05 09:11:00,
2013-05-05 02:21:00,60.0,27.0,-100.00,SSE,159,3.0,8.0,28,0.00,,,0.00,0.000000,,2013-05-05 09:21:00,
2013-05-05 02:52:00,60.0,26.0,-100.00,SE,141,3.0,6.0,27,-99.99,,,0.00,0.000000,,2013-05-05 09:52:00,
2013-05-05 03:02:00,60.0,26.0,-100.00,SE,141,3.0,6.0,27,-99.99,,,0.00,0.000000,,2013-05-05 10:02:00,
2013-05-05 03:12:00,60.0,26.0,-100.00,SE,141,3.0,6.0,27,-99.99,,,0.00,0.000000,,2013-05-05 10:12:00,
2013-05-05 03:22:00,60.0,26.0,-100.00,SE,141,3.0,6.0,27,-99.99,,,0.00,0.000000,,2013-05-05 10:22:00,
2013-05-05 03:53:00,57.0,29.0,-100.00,SE,130,2.0,15.0,34,0.00,,,0.00,0.000000,,2013-05-05 10:53:00,
2013-05-05 04:01:00,57.0,29.0,-100.00,SE,130,2.0,15.0,34,0.00,,,0.00,0.000000,,2013-05-05 11:01:00,
2013-05-05 04:11:00,57.0,29.0,-100.00,SE,130,2.0,15.0,34,0.00,,,0.00,0.000000,,2013-05-05 11:11:00,
2013-05-05 04:21:00,57.0,29.0,-100.00,SE,130,2.0,15.0,34,0.00,,,0.00,0.000000,,2013-05-05 11:21:00,
2013-05-05 04:52:00,57.0,32.0,-100.00,SSE,158,1.0,7.0,38,0.00,,,0.00,0.000000,,2013-05-05 11:52:00,
2013-05-05 05:01:00,57.0,32.0,-100.00,SSE,158,1.0,7.0,38,0.00,,,0.00,0.000000,,2013-05-05 12:01:00,
2013-05-05 05:11:00,57.0,32.0,-100.00,SSE,158,1.0,7.0,38,0.00,,,0.00,0.000000,,2013-05-05 12:11:00,
2013-05-05 05:21:00,57.0,32.0,-100.00,SSE,158,1.0,7.0,38,0.00,,,0.00,0.000000,,2013-05-05 12:21:00,
2013-05-05 05:52:00,56.0,32.0,-100.00,East,101,2.0,8.0,40,0.00,,,0.00,0.000000,,2013-05-05 12:52:00,
2013-05-05 06:01:00,56.0,32.0,-100.00,East,101,2.0,8.0,40,0.00,,,0.00,0.000000,,2013-05-05 13:01:00,
2013-05-05 06:11:00,56.0,32.0,-100.00,East,101,2.0,8.0,40,0.00,,,0.00,0.000000,,2013-05-05 13:11:00,
2013-05-05 06:21:00,56.0,32.0,-100.00,East,101,2.0,8.0,40,0.00,,,0.00,0.000000,,2013-05-05 13:21:00,
2013-05-05 06:52:00,56.0,33.0,-100.00,SSE,149,1.0,9.0,42,0.00,,,0.00,6.000000,,2013-05-05 13:52:00,
2013-05-05 07:01:00,56.0,33.0,-100.00,SSE,149,1.0,9.0,42,0.00,,,0.00,6.000000,,2013-05-05 14:01:00,
2013-05-05 07:11:00,56.0,33.0,-100.00,SSE,149,1.0,9.0,42,0.00,,,0.00,6.000000,,2013-05-05 14:11:00,
2013-05-05 07:21:00,56.0,33.0,-100.00,SSE,149,1.0,9.0,42,0.00,,,0.00,6.000000,,2013-05-05 14:21:00,
2013-05-05 07:52:00,59.0,35.0,-100.00,SSE,150,1.0,5.0,41,-99.99,,,0.00,116.000000,,2013-05-05 14:52:00,
2013-05-05 08:01:00,59.0,35.0,-100.00,SSE,150,1.0,5.0,41,-99.99,,,0.00,116.000000,,2013-05-05 15:01:00,
2013-05-05 08:11:00,59.0,35.0,-100.00,SSE,150,1.0,5.0,41,-99.99,,,0.00,116.000000,,2013-05-05 15:11:00,
2013-05-05 08:21:00,59.0,35.0,-100.00,SSE,150,1.0,5.0,41,-99.99,,,0.00,116.000000,,2013-05-05 15:21:00,
2013-05-05 08:53:00,65.0,37.0,-100.00,East,87,2.0,6.0,35,0.00,,,0.00,289.000000,,2013-05-05 15:53:00,
2013-05-05 09:03:00,65.0,37.0,-100.00,East,87,2.0,6.0,35,0.00,,,0.00,289.000000,,2013-05-05 16:03:00,
2013-05-05 09:12:00,65.0,37.0,-100.00,East,87,2.0,6.0,35,0.00,,,0.00,289.000000,,2013-05-05 16:12:00,
2013-05-05 09:22:00,65.0,37.0,-100.00,East,87,2.0,6.0,35,0.00,,,0.00,289.000000,,2013-05-05 16:22:00,
2013-05-05 09:53:00,69.0,36.0,-100.00,ENE,70,1.0,7.0,30,0.00,,,0.00,460.000000,,2013-05-05 16:53:00,
2013-05-05 10:02:00,69.0,36.0,-100.00,ENE,70,1.0,7.0,30,0.00,,,0.00,460.000000,,2013-05-05 17:02:00,
2013-05-05 10:12:00,69.0,36.0,-100.00,ENE,70,1.0,7.0,30,0.00,,,0.00,460.000000,,2013-05-05 17:12:00,
2013-05-05 10:23:00,69.0,36.0,-100.00,ENE,70,1.0,7.0,30,0.00,,,0.00,460.000000,,2013-05-05 17:23:00,
2013-05-05 10:52:00,72.0,35.0,-100.00,East,89,4.0,12.0,26,0.00,,,0.00,613.000000,,2013-05-05 17:52:00,
2013-05-05 11:01:00,72.0,35.0,-100.00,East,89,4.0,12.0,26,0.00,,,0.00,613.000000,,2013-05-05 18:01:00,
2013-05-05 11:11:00,72.0,35.0,-100.00,East,89,4.0,12.0,26,0.00,,,0.00,613.000000,,2013-05-05 18:11:00,
2013-05-05 11:21:00,72.0,35.0,-100.00,East,89,4.0,12.0,26,0.00,,,0.00,613.000000,,2013-05-05 18:21:00,
2013-05-05 11:52:00,72.0,34.0,-100.00,ENE,57,5.0,18.0,25,0.00,,,0.00,739.000000,,2013-05-05 18:52:00,
2013-05-05 12:01:00,72.0,34.0,-100.00,ENE,57,5.0,18.0,25,0.00,,,0.00,739.000000,,2013-05-05 19:01:00,
2013-05-05 12:11:00,72.0,34.0,-100.00,ENE,57,5.0,18.0,25,0.00,,,0.00,739.000000,,2013-05-05 19:11:00,
2013-05-05 12:21:00,72.0,34.0,-100.00,ENE,57,5.0,18.0,25,0.00,,,0.00,739.000000,,2013-05-05 19:21:00,
2013-05-05 12:52:00,73.0,33.0,-100.00,NE,47,6.0,17.0,23,0.00,,,0.00,828.000000,,2013-05-05 19:52:00,
2013-05-05 13:01:00,73.0,33.0,-100.00,NE,47,6.0,17.0,23,0.00,,,0.00,828.000000,,2013-05-05 20:01:00,
2013-05-05 13:11:00,73.0,33.0,-100.00,NE,47,6.0,17.0,23,0.00,,,0.00,828.000000,,2013-05-05 20:11:00,
2013-05-05 13:21:00,73.0,33.0,-100.00,NE,47,6.0,17.0,23,0.00,,,0.00,828.000000,,2013-05-05 20:21:00,
2013-05-05 13:52:00,76.0,32.0,-100.00,NE,44,5.0,17.0,20,0.00,,,0.00,875.000000,,2013-05-05 20:52:00,
2013-05-05 14:01:00,76.0,32.0,-100.00,NE,44,5.0,17.0,20,0.00,,,0.00,875.000000,,2013-05-05 21:01:00,
2013-05-05 14:11:00,76.0,32.0,-100.00,NE,44,5.0,17.0,20,0.00,,,0.00,875.000000,,2013-05-05 21:11:00,
2013-05-05 14:21:00,76.0,32.0,-100.00,NE,44,5.0,17.0,20,0.00,,,0.00,875.000000,,2013-05-05 21:21:00,
2013-05-05 14:53:00,77.0,32.0,-100.00,NE,41,4.0,17.0,19,0.00,,,0.00,871.000000,,2013-05-05 21:53:00,
2013-05-05 15:02:00,77.0,32.0,-100.00,NE,41,4.0,17.0,19,0.00,,,0.00,871.000000,,2013-05-05 22:02:00,
2013-05-05 15:12:00,77.0,32.0,-100.00,NE,41,4.0,17.0,19,0.00,,,0.00,871.000000,,2013-05-05 22:12:00,
2013-05-05 15:22:00,77.0,32.0,-100.00,NE,41,4.0,17.0,19,0.00,,,0.00,871.000000,,2013-05-05 22:22:00,
2013-05-05 15:52:00,77.0,29.0,-100.00,NE,53,3.0,15.0,17,0.00,,,0.00,818.000000,,2013-05-05 22:52:00,
2013-05-05 16:02:00,77.0,29.0,-100.00,NE,53,3.0,15.0,17,0.00,,,0.00,818.000000,,2013-05-05 23:02:00,
2013-05-05 16:11:00,77.0,29.0,-100.00,NE,53,3.0,15.0,17,0.00,,,0.00,818.000000,,2013-05-05 23:11:00,
2013-05-05 16:21:00,77.0,29.0,-100.00,NE,53,3.0,15.0,17,0.00,,,0.00,818.000000,,2013-05-05 23:21:00,
2013-05-05 16:52:00,76.0,27.0,-100.00,NE,53,3.0,12.0,16,0.00,,,0.00,719.000000,,2013-05-05 23:52:00,
2013-05-05 17:01:00,76.0,27.0,-100.00,NE,53,3.0,12.0,16,0.00,,,0.00,719.000000,,2013-05-06 00:01:00,
2013-05-05 17:11:00,76.0,27.0,-100.00,NE,53,3.0,12.0,16,0.00,,,0.00,719.000000,,2013-05-06 00:11:00,
2013-05-05 17:21:00,76.0,27.0,-100.00,NE,53,3.0,12.0,16,0.00,,,0.00,719.000000,,2013-05-06 00:21:00,
2013-05-05 17:51:00,76.0,27.0,-100.00,NNE,23,2.0,13.0,16,0.00,,,0.00,581.000000,,2013-05-06 00:51:00,
2013-05-05 18:01:00,76.0,27.0,-100.00,NNE,23,2.0,13.0,16,0.00,,,0.00,581.000000,,2013-05-06 01:01:00,
2013-05-05 18:11:00,76.0,27.0,-100.00,NNE,23,2.0,13.0,16,0.00,,,0.00,581.000000,,2013-05-06 01:11:00,
2013-05-05 18:21:00,76.0,27.0,-100.00,NNE,23,2.0,13.0,16,0.00,,,0.00,581.000000,,2013-05-06 01:21:00,
2013-05-05 18:52:00,76.0,27.0,-100.00,NNW,338,1.0,6.0,16,0.00,,,0.00,418.000000,,2013-05-06 01:52:00,
2013-05-05 19:01:00,76.0,27.0,-100.00,NNW,338,1.0,6.0,16,0.00,,,0.00,418.000000,,2013-05-06 02:01:00,
2013-05-05 19:11:00,76.0,27.0,-100.00,NNW,338,1.0,6.0,16,0.00,,,0.00,418.000000,,2013-05-06 02:11:00,
2013-05-05 19:21:00,76.0,27.0,-100.00,NNW,338,1.0,6.0,16,0.00,,,0.00,418.000000,,2013-05-06 02:21:00,
2013-05-05 19:52:00,72.0,27.0,-100.00,NE,54,2.0,8.0,19,0.00,,,0.00,244.000000,,2013-05-06 02:52:00,
2013-05-05 20:01:00,72.0,27.0,-100.00,NE,54,2.0,8.0,19,0.00,,,0.00,244.000000,,2013-05-06 03:01:00,
2013-05-05 20:11:00,72.0,27.0,-100.00,NE,54,2.0,8.0,19,0.00,,,0.00,244.000000,,2013-05-06 03:11:00,
2013-05-05 20:22:00,72.0,27.0,-100.00,NE,54,2.0,8.0,19,0.00,,,0.00,244.000000,,2013-05-06 03:22:00,
2013-05-05 20:52:00,67.0,28.0,-100.00,SE,136,0.0,6.0,23,0.00,,,0.00,81.000000,,2013-05-06 03:52:00,
2013-05-05 21:02:00,67.0,28.0,-100.00,SE,136,0.0,6.0,23,0.00,,,0.00,81.000000,,2013-05-06 04:02:00,
2013-05-05 21:12:00,67.0,28.0,-100.00,SE,136,0.0,6.0,23,0.00,,,0.00,81.000000,,2013-05-06 04:12:00,
2013-05-05 21:23:00,67.0,28.0,-100.00,SE,136,0.0,6.0,23,0.00,,,0.00,81.000000,,2013-05-06 04:23:00,
2013-05-05 21:53:00,64.0,31.0,-100.00,SSW,203,1.0,5.0,29,0.00,,,0.00,2.000000,,2013-05-06 04:53:00,
2013-05-05 22:02:00,64.0,31.0,-100.00,SSW,203,1.0,5.0,29,0.00,,,0.00,2.000000,,2013-05-06 05:02:00,
2013-05-05 22:12:00,64.0,31.0,-100.00,SSW,203,1.0,5.0,29,0.00,,,0.00,2.000000,,2013-05-06 05:12:00,
2013-05-05 22:22:00,64.0,31.0,-100.00,SSW,203,1.0,5.0,29,0.00,,,0.00,2.000000,,2013-05-06 05:22:00,
2013-05-05 22:52:00,62.0,30.0,-100.00,South,170,1.0,3.0,30,0.00,,,0.00,0.000000,,2013-05-06 05:52:00,
2013-05-05 23:02:00,62.0,30.0,-100.00,South,170,1.0,3.0,30,0.00,,,0.00,0.000000,,2013-05-06 06:02:00,
2013-05-05 23:12:00,62.0,30.0,-100.00,South,170,1.0,3.0,30,0.00,,,0.00,0.000000,,2013-05-06 06:12:00,
2013-05-05 23:21:00,62.0,30.0,-100.00,South,170,1.0,3.0,30,0.00,,,0.00,0.000000,,2013-05-06 06:21:00,
2013-05-05 23:52:00,62.0,28.0,-100.00,SE,132,3.0,5.0,27,0.00,,,0.00,0.000000,,2013-05-06 06:52:00,